Flag for U.S.A. Weather past 2 weeks in Hollywood, Florida, U.S.A.

Now
78 °F

Passing clouds.


Feels Like: 81 °F
Forecast: 71 / 85 °F
Wind: 9 mph from South

Location: Fort Lauderdale / Hollywood International Airport

Current Time: Mar 27, 2015 at 1:16:26 AM

Latest Report: Mar 27, 2015 at 12:53 AM


Visibility: 10 mi

Pressure: 29.94 "Hg

Humidity: 84%

Dew point: 73 °F

Location of HollywoodLocation

Historic Weather in Hollywood — Graph

°F

Hollywood temperature yesterday

Maximum temperature yesterday: 85 °F (at 3:53 PM)
Minimum temperature yesterday: 73 °F (at 3:53 AM)
Average temperature yesterday: 79 °F

Past Weeks' High & Low Weather Summary

 TemperatureHumidityPressure
High87 °F (Mar 23, 2:53 PM)100% (Mar 25, 6:53 AM)30.20 "Hg (Mar 25, 6:53 AM)
Low66 °F (Mar 18, 4:53 AM)43% (Mar 23, 2:53 PM)29.88 "Hg (Mar 23, 4:53 PM)
Average76 °F78%30.05 "Hg
* Reported Mar 11 11:53 PM — Mar 26 11:53 PM, Hollywood, Weather by CustomWeather, © 2015

Note: Actual official high and low records may vary slightly from our data, if they occured in-between our weather recording intervals... More about our weather records

Advertising

Hollywood weather history for previous 24 hours

 ConditionsComfort  
Time TempWeatherWind HumidityBarometerVisibility
11:53 PM
Thu, Mar 26
78 °FPassing clouds.6 mph84%29.96 "Hg10 mi
10:53 PM78 °FPassing clouds.7 mph82%29.96 "Hg10 mi
9:53 PM79 °FClear.9 mph74%29.95 "Hg10 mi
8:53 PM79 °FPartly cloudy.9 mph74%29.94 "Hg10 mi
7:53 PM80 °FScattered clouds.14 mph71%29.93 "Hg10 mi
6:53 PM82 °FPassing clouds.16 mph70%29.91 "Hg10 mi
5:53 PM84 °FPassing clouds.20 mph61%29.91 "Hg10 mi
4:53 PM84 °FScattered clouds.20 mph61%29.91 "Hg10 mi
3:53 PM85 °FScattered clouds.20 mph61%29.96 "Hg10 mi
2:53 PM84 °FScattered clouds.15 mph67%29.96 "Hg10 mi
1:53 PM83 °FPartly sunny.20 mph72%29.99 "Hg10 mi
12:53 PM83 °FPartly sunny.14 mph68%30.02 "Hg10 mi
11:53 AM81 °FPartly sunny.17 mph74%30.06 "Hg10 mi
10:53 AM80 °FBroken clouds.12 mph74%30.07 "Hg9 mi
9:53 AM80 °FBroken clouds.13 mph76%30.06 "Hg10 mi
8:53 AM78 °FPartly sunny.6 mph79%30.06 "Hg10 mi
7:53 AM76 °FPassing clouds.3 mph85%30.04 "Hg10 mi
6:53 AM75 °FPassing clouds.3 mph85%30.02 "Hg10 mi
5:53 AM75 °FPassing clouds.5 mph85%30.01 "Hg10 mi
4:53 AM73 °FPassing clouds.3 mph84%30.02 "Hg10 mi
3:53 AM73 °FPassing clouds.No wind84%30.02 "Hg10 mi
2:53 AM74 °FPassing clouds.3 mph82%30.03 "Hg10 mi
1:53 AM76 °FPassing clouds.No wind80%30.06 "Hg10 mi
Weather by CustomWeather, © 2015

See weather overviewHow to use our weather pages